Location: Asheville, NC
(35.6000°N, 82.5500°W)
Time: 22:41:28
(UTC-04:00)

Vanguard 1 Rocket - Pass Details

Date: 15 December 2017
Orbit: 654 x 4223 km, 34.3° (Epoch: 25 April)

Event Time Altitude Azimuth Distance (km) Brightness Sun altitude
Rises 17:24:26 0° 249° (WSW) 4,059 13.6 -1.9°
Reaches altitude 10° 17:26:37 10° 247° (WSW) 3,369 12.4 -2.3°
Maximum altitude 17:35:26 76° 163° (SSE) 2,093 9.3 -3.9°
Drops below altitude 10° 17:53:28 10° 82° (E) 6,396 11.1 -7.2°
Enters shadow 17:55:58 - 82° (E) 7,017 11.3 -7.7°
Sets 17:59:30 0° 82° (E) 7,861 - -8.4°
